COSMOS 2251 DEB

Satellite information

Favourite Embed

Satellite Type and Status

DEBRISIN ORBIT

Key statistics

Satellite COSMOS 2251 DEB at a glance.

Uptime

11869

Days in orbit

Revolutions

≈ 14.8

Per day

Orbit

LEO

Low Earth Orbit

Inclination

74.0

Latest

Satellite identification and parameters

Extended collection of information and parameters for COSMOS 2251 DEB.

Object identification

Identified? True

Debris? True

Object name: COSMOS 2251 DEB

International designator: 1993-036ATB

Object number (NORAD): 35829

Object ID (CCSDS): 35829

Country: COMMONWEALTH OF INDEPENDENT STATES (CIS)

Current information (Y/N): Y

RCS size: SMALL

Orbital parameters

Period: 97.554 minutes

Inclination: 74.0249 deg

SMA: 7019.788 km

Apoapsis: 646.063 km

Periapsis: 637.242 km

RAAN: 106.8945 deg

Eccentricy: 0.0006283

Argument of periapsis: 174.4564 deg

Mean anomaly: 185.6681 deg

Mean motion: 14.76103447 rev/day

Mean motion (dot): 0.0002262 rev/day2

B* drag term: 0.0032694 1/REarth

Two-line elements (TLE)

Creation date: Dec. 9, 2025, 12:06 a.m.

Reference frame: TEME

Reference center: EARTH

Epoch: Dec. 8, 2025, 2:41 p.m. UTC

TLE line 0: 0 COSMOS 2251 DEB

TLE line 1: 1 35829U 93036ATB 25342.61210338 .00022620 00000-0 32694-2 0 9996

TLE line 2: 2 35829 74.0249 106.8945 0006283 174.4564 185.6681 14.76103447877147

Live tracking on map

Real-time ground track for satellite COSMOS 2251 DEB.

In-orbit conjunctions

A list of the most updated potential collisions computed for object COSMOS 2251 DEB.

Target Orbit TCA Probability of collision Miss distance Type
IRIDIUM 33 DEB LEO 2025-07-29 02:10:20 0.0001694143 111.0 (m) DEBRIS
AEROCUBE 2 SSO 2024-11-26 15:59:15 0.0001070616 566.0 (m) PAYLOAD

Associated space launch

Military communications satellite. Destroyed in a collision with Iridium 33.

COSMOS 2251 DEB was lifted into orbit during the mission ‘Kosmos-3M | Strela-2M 51’, on board a Kosmos-3M space rocket.

The launch took place on June 16, 1993, 4:17 a.m. from 132/1 (132L).

For more information about the launch, click the button.

Launch to space Kosmos-3M | Strela-2M 51
Kosmos-3M | Strela-2M 51

Agency: N/A

Status: Launch Successful

Launch date: June 16, 1993, 4:17 a.m. UTC

Rocket: Kosmos-3M

Launch pad: 132/1 (132L)

Location: Plesetsk Cosmodrome, Russian Federation

...

Latest news about this satellite

There are no fresh news available about this satellite. Check back as we update our databases every day.


Newsletter sign-up

Weekly statistics, charts and insights to help you stay on top of the space industry.